Tracking 26257 objects as of 4-Oct-2022
HD Live streaming from Space Station
objects crossing your sky now

SPACEBEE-52

Track SPACEBEE-52 now!
10-day predictions


NORAD ID: 47425
Int'l Code: 2021-006N
Perigee: 471.3 km
Apogee: 483.4 km
Inclination: 97.4 °
Period: 94.0 minutes
Semi major axis: 6848 km
RCS: Unknown
Launch date: January 24, 2021
Source: United States (US)
Launch site: AIR FORCE EASTERN TEST RANGE (AFETR)
aabbcc
Your satellite tracking list
Your tracking list is empty




NASA's NSSDC Master Catalog

Two Line Element Set (TLE):
1 47425U 21006N   22276.44196766  .00082256  00000-0  26461-2 0  9997
2 47425  97.4331 338.2985 0008869 239.1240 120.9130 15.31880968 94908
Source of the keplerian elements: AFSPC